SCP
-0 -0 -0 0 0 0 0 0 0 0 0 0 0 0 0 0 0 0 0 0 0 -0 -0 -0 0 0 0 0 0 0 0 0 0 0 0 0 0 0 0 0 0 0 0
-0 -0 0 0 0 0 0 0 0 0 0 0 0 0 0 0 0 0 0 0 0 0 0 0 0 0 0 0 0 0 1 0 0 0 0 0 0 0 0 0 0 0 0
0 0 0 0 0 0 0 0 0 0 0 0 0 0 0 0 0 0 0 0 0 0 0 0 0 0 0 0 0 0 1 0 0 0 0 0 0 0 0 0 0 0 0
0 0 0 0 0 0 0 0 0 0 0 0 0 0 0 0 0 0 0 0 0 0 0 0 0 0 0 0 0 0 0 0 0 0 0 0 0 0 0 0 0 0 0
0 0 0 0 0 0 0 0 0 0 0 0 0 0 0 0 0 0 0 0 0 0 0 0 0 0 0 0 0 0 0 0 0 0 0 0 0 0 0 0 0 0 0
0 0 0 0 0 0 0 0 0 0 0 0 0 0 0 0 0 0 0 0 0 0 0 0 0 0 0 0 0 0 0 0 0 0 0 0 0 0 0 0 0 0 0
0 0 0 0 0 0 0 0 0 0 0 0 0 0 0 0 0 0 0 0 0 0 0 0 0 0 0 0 0 0 0 0 0 0 0 0 0 0 0 0 0 0 0
0 0 0 0 0 0 0 0 0 0 0 0 0 0 0 0 0 0 0 0 0 0 0 0 0 0 0 0 0 0 0 0 0 0 0 0 0 0 0 0 0 0 0
0 0 0 0 0 0 0 0 0 0 0 0 0 0 0 0 0 0 0 0 0 0 0 0 0 0 0 0 0 0 0 0 0 0 0 0 0 0 0 0 0 0 -0
0 0 0 0 0 0 0 0 0 0 0 0 0 0 0 0 0 0 0 0 0 0 0 0 0 0 0 0 0 0 0 0 0 0 0 0 0 0 0 0 0 -0 -0
0 0 0 0 0 0 0 0 0 0 0 0 0 0 0 0 0 0 0 0 0 0 0 0 0 0 0 0 0 0 0 0 0 0 0 0 0 0 0 0 -0 -0 -0
0 0 0 0 0 0 0 0 0 0 0 0 0 0 0 0 0 0 0 0 0 0 0 0 0 0 0 0 0 0 0 0 0 0 0 0 -0 0 0 0 0 0 0
0 0 0 0 0 0 0 0 0 0 0 0 0 0 0 0 0 0 0 0 0 0 0 0 -0 -0 0 0 0 0 0 0 0 0 -0 -0 -0 -0 0 0 0 0 0
0 0 0 0 0 0 0 0 0 0 0 0 0 0 0 0 0 0 0 0 0 0 0 0 0 -0 -0 -0 -0 0 0 0 0 -0 -0 -0 0 0 0 0 0 0 0
0 0 0 0 0 0 0 0 0 0 0 0 0 0 0 0 0 0 0 0 0 0 0 0 0 0 -0 -0 -0 -0 -0 -0 -0 -0 0 0 0 0 0 0 0 0 0
0 0 0 0 0 0 0 0 0 0 0 0 0 0 0 0 0 0 0 0 0 0 0 0 0 0 -0 -0 -0 -0 -0 -0 -0 -0 0 0 0 0 0 0 0 0 0
0 0 0 0 0 0 0 0 0 0 0 0 0 0 0 0 0 0 0 0 0 0 0 0 0 0 0 0 -0 -0 -0 0 0 0 0 0 0 0 0 0 0 0 0
0 0 0 0 0 0 0 0 0 0 0 0 0 0 0 0 0 0 0 0 0 0 0 0 0 0 0 0 0 0 0 0 0 0 0 0 0 0 0 0 0 0 0
0 0 0 0 0 0 0 0 0 0 0 0 0 0 0 0 0 0 0 0 0 0 0 0 0 0 0 0 0 0 0 0 0 0 0 0 0 0 0 0 -0 0 0
0 0 0 0 0 0 0 0 0 0 0 0 0 0 0 0 0 0 0 0 0 0 0 0 0 0 0 0 0 0 0 0 0 0 0 0 0 0 0 0 0 -0 0
0 0 0 0 0 0 0 0 0 0 0 0 0 0 0 0 0 0 0 0 0 0 0 0 0 0 0 0 0 0 0 0 0 0 0 0 0 0 0 0 0 0 0
0 0 0 0 0 0 0 0 0 0 0 0 0 0 0 0 0 0 0 0 0 0 0 0 0 0 0 0 0 0 0 0 0 0 0 0 0 0 0 0 0 0 0
0 0 0 0 0 0 0 0 0 0 0 0 0 0 0 0 0 0 0 0 0 0 0 0 0 0 0 0 0 0 0 0 0 0 0 0 0 0 0 0 0 0 0
0 0 0 0 0 0 0 0 0 0 0 0 0 0 0 0 0 0 0 0 0 0 0 0 0 0 0 0 0 0 0 0 0 0 0 0 0 0 0 0 0 0 0
0 0 0 0 0 0 0 0 0 0 0 0 0 0 0 0 0 0 0 0 0 0 0 0 0 0 0 0 0 0 0 0 0 0 0 0 0 0 0 0 0 0 0
0 0 0 0 0 0 0 0 0 0 0 0 0 0 0 0 0 0 0 0 0 0 0 0 0 0 0 0 0 0 0 0 0 0 0 0 0 0 0 0 0 0 0
Wind_Speed
3 3 3 2 2 2 2 2 2 2 3 4 4 5 6 6 6 6 5 12 14 15 18 18 17 19 21 21 22 22 21 20 19 17 16 15 15 14 12 11 10 9 9
3 4 3 3 4 3 3 3 3 2 2 2 4 4 3 3 4 5 5 7 13 16 17 17 17 17 19 20 23 23 22 21 20 19 17 16 16 15 14 12 11 10 10
4 4 4 4 3 2 2 2 2 1 1 1 2 3 2 2 3 4 5 4 6 11 16 17 18 17 17 17 20 22 20 19 20 20 18 18 17 16 15 14 13 11 10
5 4 3 3 2 1 2 2 2 1 1 2 2 2 2 2 3 4 3 4 4 5 9 15 17 16 15 17 19 23 23 20 20 21 20 20 19 18 16 16 14 12 11
5 4 3 2 2 1 2 2 2 1 1 2 3 3 2 2 2 2 3 4 4 5 6 9 13 14 15 14 16 19 23 23 22 23 23 22 21 19 18 17 16 14 13
5 4 3 3 3 2 2 2 2 2 1 1 2 3 3 3 3 2 3 3 4 5 6 7 6 7 12 12 10 12 17 21 23 24 24 24 23 20 19 18 16 15 14
6 5 4 4 4 4 4 3 2 2 1 1 1 3 3 3 4 3 2 3 4 4 5 6 5 5 5 9 8 7 11 15 18 21 21 22 23 21 19 18 16 15 14
6 5 6 5 5 4 4 4 3 2 2 2 1 1 4 4 3 2 2 3 4 3 4 5 6 6 5 4 4 5 8 9 12 15 18 22 21 20 19 18 17 16 15
6 6 7 5 5 5 5 5 5 5 3 2 2 2 1 3 4 3 3 3 3 3 3 3 4 6 6 4 3 2 5 7 13 19 22 22 20 19 17 17 17 16 15
5 5 5 5 6 5 5 5 5 4 4 3 2 3 3 3 1 4 4 3 4 3 3 3 3 5 6 4 3 1 4 9 14 19 21 20 19 18 16 16 16 16 16
3 4 4 4 4 4 4 3 4 5 4 4 3 3 3 3 4 3 5 5 3 2 2 2 2 3 5 4 2 3 8 10 13 18 19 18 18 18 17 17 17 17 16
3 3 2 1 1 2 2 3 4 5 4 4 3 3 3 3 4 4 5 4 4 3 2 2 2 2 3 4 4 10 13 13 15 17 16 15 15 16 17 16 15 15 14
2 4 3 2 1 1 2 2 3 4 4 4 5 4 4 4 3 3 2 3 3 2 3 2 1 1 2 3 4 12 15 16 15 14 13 13 14 14 15 15 14 14 14
2 2 3 2 1 1 2 2 2 3 3 4 5 5 3 4 4 3 3 2 1 2 2 3 1 0 1 3 3 7 8 11 11 11 12 12 12 13 14 14 13 12 12
3 3 2 2 3 3 3 1 1 2 2 4 5 5 4 4 4 4 3 3 2 1 2 2 1 1 1 3 4 4 5 7 7 8 9 10 11 11 11 11 12 12 12
3 2 3 3 3 3 3 2 1 1 1 2 3 5 5 4 5 5 5 4 3 3 2 1 1 1 1 3 4 3 3 4 7 8 10 11 11 11 11 11 12 13 13
3 3 2 2 3 4 3 2 2 2 2 2 2 3 5 4 5 5 5 4 4 4 3 2 0 1 1 3 4 3 3 3 3 7 9 11 12 12 12 12 13 13 13
2 2 2 3 3 3 3 3 3 3 3 3 4 4 4 2 4 4 4 5 5 5 4 3 1 0 1 1 3 3 3 4 4 6 8 10 11 12 12 12 13 13 14
3 3 3 3 3 3 3 3 2 3 3 3 4 3 3 2 2 2 3 3 3 3 3 3 2 1 0 1 1 1 0 1 2 3 6 9 10 11 10 11 12 12 13
4 4 4 4 3 3 3 2 2 3 3 5 5 5 4 4 3 2 1 2 2 3 3 2 2 1 1 1 1 1 1 1 2 3 2 0 3 6 8 10 11 10 12
4 4 5 5 5 3 4 4 4 5 5 6 6 6 6 6 7 5 3 2 2 2 2 2 1 1 1 1 1 1 0 1 1 3 2 3 2 2 2 4 8 10 12
4 4 6 6 6 5 6 9 7 7 6 6 6 5 5 7 6 9 11 10 7 4 2 2 1 1 1 1 1 1 0 0 0 2 3 2 2 2 3 4 7 6 5
5 5 5 5 5 6 7 9 9 6 6 6 5 5 5 6 6 5 8 10 11 12 8 3 3 3 2 2 1 1 0 1 1 2 2 1 2 2 3 5 9 10 9
5 5 5 5 4 5 5 7 8 6 6 5 5 4 4 6 6 6 7 8 8 8 7 5 3 3 2 2 1 1 1 2 1 2 3 1 2 1 1 2 7 9 9
6 5 4 5 4 4 5 4 6 4 5 5 4 4 5 6 9 9 7 7 7 7 7 7 6 6 5 4 1 1 1 1 1 2 3 2 2 2 1 1 3 7 8
4 5 4 3 4 4 4 3 4 3 3 3 3 4 6 6 7 7 6 6 7 5 5 5 5 6 5 5 6 3 2 2 1 1 2 1 1 1 1 1 1 4 5
Wind_Direction
232 233 237 223 218 207 218 237 241 263 268 266 260 253 259 263 262 261 266 275 283 289 289 280 266 251 240 230 219 212 208 202 194 189 187 181 173 170 166 163 164 160 151
233 232 231 219 216 215 214 216 220 224 247 255 263 257 261 272 273 277 279 288 293 295 295 293 283 272 260 247 227 215 209 206 195 187 187 181 174 172 168 167 167 163 154
226 226 223 219 220 215 206 207 205 176 228 242 255 265 270 283 290 289 287 284 291 295 297 297 293 284 270 252 230 218 211 208 197 188 186 181 175 173 169 167 166 165 161
214 210 222 220 219 197 184 194 174 166 280 283 283 282 282 282 285 285 285 289 292 293 297 299 299 296 283 255 239 227 218 211 203 192 187 181 175 173 170 167 164 168 171
209 200 222 220 188 183 196 191 164 162 253 282 290 285 278 281 291 302 308 307 306 302 298 301 306 309 306 280 255 237 224 214 209 199 189 180 174 172 171 169 167 173 179
203 190 202 203 174 182 206 203 190 180 214 255 298 293 275 269 276 284 304 314 317 317 314 311 312 314 313 311 281 252 231 218 213 205 192 179 169 170 172 171 170 178 183
193 184 188 195 185 196 209 201 182 205 234 155 324 314 301 270 267 259 273 304 319 324 324 328 330 327 317 319 310 267 233 219 210 207 189 169 164 167 173 172 174 181 185
195 193 195 197 195 202 214 199 180 191 224 167 156 326 324 330 325 288 281 296 318 327 351 353 349 340 330 323 303 258 220 210 195 177 161 155 160 165 173 175 179 183 189
200 196 203 197 196 199 212 203 187 194 214 191 172 183 228 289 313 309 290 302 315 326 345 353 351 342 337 337 331 257 198 165 153 149 150 156 160 164 173 180 185 189 194
201 197 197 199 207 207 213 207 195 196 193 205 192 214 214 184 266 311 312 305 300 307 330 340 351 347 340 343 354 359 160 147 146 149 153 153 156 165 177 187 193 197 200
169 185 201 209 219 217 218 204 195 203 199 192 185 192 206 203 215 238 288 312 314 296 301 326 351 345 345 351 3 104 121 130 135 138 139 148 163 174 183 193 198 202 205
93 78 92 173 215 232 229 211 206 209 207 197 189 190 185 189 202 211 248 280 298 299 309 322 352 350 358 9 61 108 109 116 126 136 150 164 173 182 190 197 203 208 213
95 79 83 89 99 260 263 241 216 220 209 204 202 206 205 205 187 191 212 254 282 302 320 337 357 343 28 47 75 103 106 111 125 145 166 176 181 186 191 199 206 214 221
81 74 76 73 41 329 298 263 239 233 217 218 218 213 208 206 193 189 188 197 264 313 322 328 354 291 89 93 113 109 114 122 138 157 173 182 187 189 193 197 204 213 224
68 61 51 32 10 354 346 323 230 239 224 224 226 222 218 207 204 207 192 191 187 230 306 321 337 27 122 125 164 158 143 150 163 179 191 195 194 193 197 202 206 212 221
67 67 39 15 355 337 333 341 315 298 266 245 228 224 227 219 218 216 207 203 198 179 223 270 315 346 142 158 188 200 197 199 205 207 211 211 206 204 206 209 211 214 220
66 68 45 14 345 324 317 306 300 320 330 324 295 256 254 245 236 223 207 198 198 185 197 222 251 358 131 167 183 208 229 242 240 226 220 218 217 218 218 218 219 220 225
71 68 49 27 358 342 344 349 340 338 341 346 343 332 313 287 252 237 213 205 202 197 185 194 195 257 101 158 182 205 233 239 242 241 235 232 232 232 229 227 228 229 232
74 57 40 27 10 352 348 344 345 359 5 13 11 11 4 341 272 262 237 213 203 192 182 175 182 189 151 69 134 144 220 279 255 245 236 239 242 244 245 243 241 239 241
67 52 36 19 11 7 9 11 31 39 48 49 42 38 32 31 19 353 287 212 179 162 149 146 151 160 149 83 76 94 66 17 27 38 47 265 252 254 256 257 256 252 247
53 50 41 25 16 17 28 47 55 53 58 54 41 30 27 43 52 49 51 73 117 118 112 111 125 134 128 111 89 68 62 325 351 2 15 38 36 30 320 272 266 256 244
30 35 34 25 18 15 47 65 69 62 56 50 35 20 19 27 47 64 64 65 68 77 88 104 114 100 85 66 84 90 67 23 342 355 353 8 34 59 48 40 20 359 291
11 12 21 20 13 12 50 74 78 78 68 55 42 29 26 15 27 55 62 62 59 55 53 72 81 64 61 23 29 43 356 257 253 338 337 357 28 50 46 46 40 40 30
13 358 360 2 360 7 42 87 86 78 70 53 43 38 35 21 28 54 63 58 51 40 34 45 78 86 75 40 22 311 265 260 279 15 2 358 12 3 359 50 44 48 48
14 0 1 358 347 350 24 99 85 73 64 45 29 32 40 35 37 57 63 56 46 28 26 48 67 72 71 61 38 110 55 64 56 44 12 10 350 326 334 357 27 35 47
22 1 16 17 349 338 4 100 99 84 66 34 14 23 41 50 48 55 59 58 48 18 8 23 33 33 37 41 40 47 67 78 63 30 0 354 319 318 344 322 349 19 29